TimeEDT,TemperatureF,Dew PointF,Humidity,Sea Level PressureIn,VisibilityMPH,Wind Direction,Wind SpeedMPH,Gust SpeedMPH,PrecipitationIn,Events,Conditions,WindDirDegrees,DateUTC
12:39 AM,62.6,57.2,82,29.74,10.0,SSW,6.9,-,N/A,,Overcast,210,2013-10-18 04:39:00
12:52 AM,62.1,57.9,86,29.74,10.0,SW,10.4,-,N/A,,Overcast,220,2013-10-18 04:52:00
1:52 AM,63.0,59.0,87,29.72,10.0,SW,10.4,-,N/A,,Overcast,220,2013-10-18 05:52:00
2:33 AM,62.6,59.0,88,29.71,10.0,SSW,9.2,-,N/A,,Overcast,210,2013-10-18 06:33:00
2:52 AM,63.0,59.0,87,29.70,10.0,SSW,8.1,-,N/A,,Mostly Cloudy,210,2013-10-18 06:52:00
3:52 AM,64.9,60.1,84,29.67,10.0,SSW,9.2,17.3,N/A,,Overcast,200,2013-10-18 07:52:00
4:09 AM,64.4,60.8,88,29.67,10.0,SSW,12.7,23.0,N/A,,Overcast,210,2013-10-18 08:09:00
4:28 AM,64.4,60.8,88,29.66,10.0,SSW,11.5,19.6,N/A,,Overcast,210,2013-10-18 08:28:00
4:44 AM,64.4,60.8,88,29.66,8.0,SSW,10.4,18.4,0.00,Rain,Light Rain,210,2013-10-18 08:44:00
4:52 AM,64.0,61.0,90,29.65,10.0,SSW,9.2,-,0.00,,Overcast,210,2013-10-18 08:52:00
5:17 AM,64.4,60.8,88,29.65,10.0,SSW,10.4,19.6,0.01,,Overcast,200,2013-10-18 09:17:00
5:52 AM,64.0,61.0,90,29.65,10.0,SW,12.7,-,0.01,,Overcast,220,2013-10-18 09:52:00
6:25 AM,64.4,60.8,88,29.64,10.0,SW,10.4,-,N/A,,Overcast,220,2013-10-18 10:25:00
6:52 AM,64.0,61.0,90,29.65,10.0,SW,10.4,-,N/A,,Overcast,230,2013-10-18 10:52:00
7:44 AM,64.4,60.8,88,29.67,10.0,WSW,10.4,17.3,N/A,,Scattered Clouds,240,2013-10-18 11:44:00
7:52 AM,64.0,60.1,87,29.68,10.0,WSW,8.1,-,N/A,,Scattered Clouds,240,2013-10-18 11:52:00
8:27 AM,64.4,57.2,77,29.69,10.0,West,11.5,20.7,N/A,,Mostly Cloudy,280,2013-10-18 12:27:00
8:42 AM,64.4,57.2,77,29.70,10.0,West,11.5,20.7,N/A,,Scattered Clouds,280,2013-10-18 12:42:00
8:52 AM,64.9,54.0,68,29.71,10.0,WNW,15.0,23.0,N/A,,Partly Cloudy,300,2013-10-18 12:52:00
9:52 AM,64.9,50.0,58,29.73,10.0,West,16.1,21.9,N/A,,Clear,280,2013-10-18 13:52:00
10:52 AM,68.0,48.9,50,29.75,10.0,WNW,11.5,18.4,N/A,,Clear,300,2013-10-18 14:52:00
11:52 AM,68.0,46.0,45,29.76,10.0,West,16.1,23.0,N/A,,Clear,280,2013-10-18 15:52:00
12:52 PM,69.1,45.0,42,29.75,10.0,West,15.0,21.9,N/A,,Clear,280,2013-10-18 16:52:00
1:52 PM,69.1,45.0,42,29.75,10.0,West,12.7,23.0,N/A,,Clear,280,2013-10-18 17:52:00
2:52 PM,69.1,45.0,42,29.77,10.0,West,11.5,21.9,N/A,,Clear,270,2013-10-18 18:52:00
3:52 PM,68.0,44.1,42,29.78,10.0,WNW,13.8,19.6,N/A,,Clear,290,2013-10-18 19:52:00
4:52 PM,66.9,43.0,42,29.79,10.0,WNW,11.5,-,N/A,,Clear,290,2013-10-18 20:52:00
5:52 PM,63.0,43.0,48,29.82,10.0,West,8.1,-,N/A,,Clear,270,2013-10-18 21:52:00
6:52 PM,60.1,42.1,51,29.84,10.0,West,3.5,-,N/A,,Clear,260,2013-10-18 22:52:00
7:52 PM,55.9,42.1,60,29.86,10.0,West,4.6,-,N/A,,Clear,260,2013-10-18 23:52:00
8:52 PM,50.0,41.0,71,29.88,10.0,Calm,Calm,-,N/A,,Clear,0,2013-10-19 00:52:00
9:52 PM,48.0,41.0,77,29.90,10.0,Calm,Calm,-,N/A,,Clear,0,2013-10-19 01:52:00
10:52 PM,45.0,39.9,82,29.91,10.0,Calm,Calm,-,N/A,,Clear,0,2013-10-19 02:52:00
11:52 PM,46.9,41.0,80,29.93,10.0,Calm,Calm,-,N/A,,Clear,0,2013-10-19 03:52:00